Location: Newark
(48.5178°N, 4.2361°E)
Time: 05:53:35
(UTC+00:00)

ISS - Pass Details

Date: 29 January 2021
Orbit: 417 x 422 km, 51.6° (Epoch: 08 March)

Event Time Altitude Azimuth Distance (km) Brightness Sun altitude
Rises 18:37:03 0° 288° (WNW) 2,376 1.3 -19.9°
Reaches altitude 10° 18:39:11 10° 292° (WNW) 1,510 0.0 -20.2°
Enters shadow 18:42:13 57° 343° (NNW) 506 -3.4 -20.7°
